AAL4735 KJFK-KMIA

Flight info

Callsign AAL4735
Flight time 2h 43m
Altitude 38000
Route WAVEY EMJAY Q167 KALDA Q101 SKARP Y313 HOAGG BNFSH2
Aircraft A20N/M-SDE2E3FGHIRWXY/LB1

Departure

Time 2026-05-06 03:40
Airport John F. Kennedy International Airport (KJFK)

Arrival

Time 2026-05-06 06:24
Airport Miami International Airport (KMIA)
Time Latitude Longitude Altitude Speed Heading
2026-05-06 02:47 40.63955 -73.78063 20 ft 0 kts 268°
2026-05-06 03:25 40.63956 -73.78048 21 ft 2 kts 267°
2026-05-06 03:25 40.63956 -73.78036 23 ft 1 kts 267°
2026-05-06 03:26 40.63956 -73.78025 22 ft 1 kts 267°
2026-05-06 03:26 40.63957 -73.78014 24 ft 1 kts 267°
2026-05-06 03:26 40.63957 -73.78007 24 ft 1 kts 270°
2026-05-06 03:26 40.63957 -73.77996 24 ft 1 kts 280°
2026-05-06 03:27 40.63954 -73.77982 24 ft 1 kts 293°
2026-05-06 03:27 40.63950 -73.77972 23 ft 1 kts 304°
2026-05-06 03:27 40.63947 -73.77966 22 ft 1 kts 312°
2026-05-06 03:27 40.63942 -73.77958 21 ft 1 kts 324°
2026-05-06 03:28 40.63935 -73.77952 23 ft 1 kts 335°
2026-05-06 03:28 40.63927 -73.77948 24 ft 1 kts 347°
2026-05-06 03:28 40.63921 -73.77946 21 ft 0 kts 355°
2026-05-06 03:30 40.63923 -73.77947 21 ft 2 kts 355°
2026-05-06 03:30 40.63974 -73.77948 20 ft 8 kts 355°
2026-05-06 03:31 40.64094 -73.77897 21 ft 27 kts 47°
2026-05-06 03:31 40.64111 -73.77810 20 ft 12 kts 96°
2026-05-06 03:31 40.64168 -73.77672 20 ft 23 kts 61°
2026-05-06 03:31 40.64248 -73.77509 20 ft 17 kts 50°
2026-05-06 03:32 40.64333 -73.77431 20 ft 0 kts 26°
2026-05-06 03:32 40.64352 -73.77418 20 ft 7 kts 29°
2026-05-06 03:32 40.64403 -73.77380 20 ft 9 kts 29°
2026-05-06 03:32 40.64439 -73.77309 20 ft 10 kts 105°
2026-05-06 03:33 40.64443 -73.77197 20 ft 15 kts 79°
2026-05-06 03:33 40.64431 -73.77063 20 ft 18 kts 102°
2026-05-06 03:33 40.64499 -73.76987 20 ft 16 kts 11°
2026-05-06 03:33 40.64615 -73.76906 20 ft 21 kts 26°
2026-05-06 03:34 40.64716 -73.76823 21 ft 25 kts 26°
2026-05-06 03:34 40.64863 -73.76714 23 ft 11 kts 29°
2026-05-06 03:34 40.64870 -73.76710 25 ft 0 kts 25°
2026-05-06 03:34 40.64871 -73.76710 25 ft 2 kts 25°
2026-05-06 03:35 40.64902 -73.76683 24 ft 9 kts 36°
2026-05-06 03:35 40.64975 -73.76624 22 ft 16 kts 31°
2026-05-06 03:35 40.65056 -73.76560 21 ft 12 kts 28°
2026-05-06 03:35 40.65099 -73.76470 21 ft 12 kts 102°
2026-05-06 03:36 40.65092 -73.76454 26 ft 0 kts 126°
2026-05-06 03:38 40.65083 -73.76438 22 ft 5 kts 126°
2026-05-06 03:38 40.65053 -73.76386 23 ft 9 kts 141°
2026-05-06 03:38 40.64985 -73.76388 22 ft 12 kts 194°
2026-05-06 03:39 40.64898 -73.76452 21 ft 17 kts 211°
2026-05-06 03:39 40.64791 -73.76535 21 ft 19 kts 210°
2026-05-06 03:39 40.64665 -73.76634 20 ft 23 kts 211°
2026-05-06 03:39 40.64400 -73.76839 19 ft 92 kts 210°
2026-05-06 03:40 40.63571 -73.77466 38 ft 176 kts 208°
2026-05-06 03:40 40.62406 -73.78404 382 ft 219 kts 209°
2026-05-06 03:40 40.60995 -73.79551 890 ft 254 kts 211°
2026-05-06 03:40 40.59444 -73.80854 1485 ft 274 kts 214°
2026-05-06 03:41 40.57830 -73.82270 2104 ft 291 kts 216°
2026-05-06 03:41 40.56090 -73.83832 2720 ft 313 kts 215°
2026-05-06 03:41 40.54202 -73.85393 3408 ft 328 kts 212°
2026-05-06 03:41 40.52046 -73.86533 4355 ft 340 kts 195°
2026-05-06 03:42 40.49683 -73.86547 5826 ft 342 kts 175°
2026-05-06 03:42 40.47511 -73.85467 7285 ft 344 kts 153°
2026-05-06 03:42 40.45794 -73.83396 9084 ft 335 kts 130°
2026-05-06 03:42 40.44611 -73.80835 10866 ft 325 kts 122°
2026-05-06 03:43 40.43523 -73.78182 11807 ft 340 kts 123°
2026-05-06 03:43 40.42298 -73.75420 12525 ft 354 kts 126°
2026-05-06 03:43 40.40968 -73.72672 13533 ft 361 kts 128°
2026-05-06 03:43 40.39609 -73.70007 14407 ft 367 kts 129°
2026-05-06 03:44 40.38105 -73.67130 15327 ft 374 kts 129°
2026-05-06 03:44 40.36604 -73.64287 16218 ft 381 kts 129°
2026-05-06 03:44 40.35106 -73.61454 17053 ft 388 kts 129°
2026-05-06 03:44 40.33553 -73.58516 17900 ft 395 kts 129°
2026-05-06 03:45 40.31985 -73.55549 18686 ft 401 kts 130°
2026-05-06 03:45 40.30389 -73.52529 19484 ft 404 kts 130°
2026-05-06 03:45 40.28792 -73.49508 20248 ft 409 kts 130°
2026-05-06 03:45 40.27150 -73.46403 21043 ft 413 kts 130°
2026-05-06 03:46 40.25509 -73.43307 21804 ft 417 kts 130°
2026-05-06 03:46 40.23702 -73.40346 22555 ft 416 kts 138°
2026-05-06 03:46 40.21608 -73.37738 23281 ft 415 kts 146°
2026-05-06 03:46 40.19299 -73.35500 23921 ft 416 kts 150°
2026-05-06 03:47 40.16954 -73.33334 24509 ft 420 kts 150°
2026-05-06 03:47 40.14471 -73.31317 25061 ft 417 kts 160°
2026-05-06 03:47 40.11748 -73.30153 25614 ft 412 kts 175°
2026-05-06 03:47 40.08912 -73.29923 26131 ft 407 kts 189°
2026-05-06 03:48 40.06148 -73.30632 26644 ft 404 kts 202°
2026-05-06 03:48 40.03621 -73.32230 27129 ft 402 kts 217°
2026-05-06 03:48 40.01474 -73.34519 27618 ft 403 kts 225°
2026-05-06 03:48 39.99397 -73.37020 28101 ft 406 kts 225°
2026-05-06 03:49 39.97306 -73.39506 28573 ft 410 kts 224°
2026-05-06 03:49 39.95168 -73.41980 29020 ft 413 kts 224°
2026-05-06 03:49 39.93011 -73.44422 29441 ft 417 kts 223°
2026-05-06 03:49 39.90800 -73.46896 29864 ft 420 kts 223°
2026-05-06 03:50 39.88578 -73.49370 30257 ft 423 kts 223°
2026-05-06 03:50 39.86337 -73.51859 30632 ft 426 kts 223°
2026-05-06 03:50 39.84071 -73.54374 31005 ft 429 kts 223°
2026-05-06 03:50 39.81802 -73.56895 31429 ft 430 kts 223°
2026-05-06 03:51 39.79527 -73.59425 31916 ft 429 kts 223°
2026-05-06 03:51 39.77258 -73.61946 32405 ft 429 kts 224°
2026-05-06 03:51 39.74999 -73.64454 32894 ft 428 kts 224°
2026-05-06 03:51 39.72742 -73.66960 33374 ft 427 kts 224°
2026-05-06 03:52 39.70484 -73.69465 33848 ft 426 kts 224°
2026-05-06 03:52 39.68256 -73.71934 34275 ft 426 kts 224°
2026-05-06 03:52 39.66002 -73.74427 34614 ft 426 kts 224°
2026-05-06 03:52 39.63746 -73.76921 34948 ft 427 kts 225°
2026-05-06 03:53 39.61479 -73.79423 35294 ft 428 kts 225°
2026-05-06 03:53 39.59210 -73.81924 35608 ft 429 kts 225°
2026-05-06 03:53 39.56941 -73.84425 35937 ft 429 kts 226°
2026-05-06 03:53 39.54665 -73.86932 36252 ft 430 kts 226°
2026-05-06 03:54 39.52383 -73.89442 36559 ft 430 kts 226°
2026-05-06 03:54 39.50121 -73.91930 36867 ft 431 kts 227°
2026-05-06 03:54 39.47845 -73.94431 37162 ft 432 kts 227°
2026-05-06 03:54 39.45547 -73.96953 37446 ft 433 kts 227°
2026-05-06 03:55 39.43250 -73.99473 37737 ft 433 kts 228°
2026-05-06 03:55 39.40948 -74.01997 37965 ft 435 kts 228°
2026-05-06 03:55 39.36272 -74.07123 38033 ft 447 kts 228°
2026-05-06 03:56 39.31490 -74.12346 38026 ft 456 kts 228°
2026-05-06 03:56 39.26613 -74.17655 38025 ft 461 kts 228°
2026-05-06 03:57 39.21702 -74.22995 38023 ft 464 kts 228°
2026-05-06 03:57 39.16756 -74.28365 38019 ft 465 kts 228°
2026-05-06 03:58 39.11799 -74.33739 38035 ft 467 kts 228°
2026-05-06 03:58 39.06821 -74.39125 38018 ft 467 kts 228°
2026-05-06 03:59 39.01836 -74.44511 38022 ft 468 kts 228°
2026-05-06 03:59 38.96853 -74.49881 38034 ft 468 kts 228°
2026-05-06 04:00 38.91931 -74.55239 38028 ft 466 kts 230°
2026-05-06 04:00 38.87165 -74.60887 38024 ft 465 kts 231°
2026-05-06 04:01 38.82409 -74.66523 38023 ft 465 kts 231°
2026-05-06 04:01 38.77675 -74.72067 38021 ft 463 kts 231°
2026-05-06 04:02 38.72793 -74.77497 38026 ft 468 kts 227°
2026-05-06 04:02 38.67750 -74.82741 38025 ft 468 kts 227°
2026-05-06 04:03 38.62675 -74.88022 38025 ft 468 kts 227°
2026-05-06 04:03 38.57623 -74.93271 38033 ft 468 kts 227°
2026-05-06 04:04 38.52564 -74.98516 38038 ft 468 kts 227°
2026-05-06 04:04 38.47693 -75.03886 38037 ft 465 kts 230°
2026-05-06 04:05 38.42572 -75.09009 38041 ft 470 kts 225°
2026-05-06 04:05 38.37327 -75.14005 38043 ft 470 kts 225°
2026-05-06 04:06 38.32110 -75.18955 38040 ft 469 kts 225°
2026-05-06 04:06 38.26855 -75.23933 38040 ft 469 kts 225°
2026-05-06 04:07 38.21628 -75.28875 38039 ft 469 kts 225°
2026-05-06 04:07 38.16421 -75.33790 38039 ft 469 kts 224°
2026-05-06 04:08 38.11181 -75.38726 38046 ft 469 kts 224°
2026-05-06 04:08 38.05947 -75.43648 38048 ft 469 kts 224°
2026-05-06 04:09 38.00618 -75.48448 38051 ft 471 kts 222°
2026-05-06 04:09 37.95211 -75.53092 38049 ft 471 kts 222°
2026-05-06 04:10 37.89808 -75.57765 38049 ft 471 kts 222°
2026-05-06 04:10 37.83876 -75.61543 38052 ft 493 kts 203°
2026-05-06 04:11 37.80456 -75.62330 38048 ft 505 kts 191°
2026-05-06 04:11 37.76920 -75.62314 38055 ft 515 kts 182°
2026-05-06 04:11 37.69796 -75.61471 38051 ft 513 kts 185°
2026-05-06 04:12 37.62812 -75.62260 38054 ft 500 kts 197°
2026-05-06 04:12 37.55957 -75.63745 38059 ft 500 kts 197°
2026-05-06 04:13 37.49085 -75.65233 38061 ft 501 kts 197°
2026-05-06 04:13 37.42230 -75.66712 38066 ft 501 kts 197°
2026-05-06 04:14 37.35344 -75.68194 38071 ft 501 kts 197°
2026-05-06 04:14 37.28486 -75.69667 38072 ft 502 kts 197°
2026-05-06 04:15 37.21654 -75.71130 38076 ft 502 kts 197°
2026-05-06 04:15 37.14771 -75.72603 38083 ft 502 kts 197°
2026-05-06 04:16 37.07916 -75.74242 38084 ft 496 kts 203°
2026-05-06 04:16 37.01646 -75.77337 38083 ft 481 kts 216°
2026-05-06 04:17 36.95823 -75.81419 38076 ft 480 kts 217°
2026-05-06 04:17 36.90028 -75.85451 38072 ft 481 kts 217°
2026-05-06 04:18 36.84173 -75.89501 38069 ft 481 kts 217°
2026-05-06 04:18 36.78298 -75.93558 38068 ft 481 kts 217°
2026-05-06 04:19 36.72440 -75.97596 38071 ft 481 kts 217°
2026-05-06 04:19 36.66601 -76.01615 38088 ft 481 kts 217°
2026-05-06 04:20 36.60779 -76.05615 38090 ft 480 kts 217°
2026-05-06 04:20 36.54928 -76.09629 38089 ft 480 kts 217°
2026-05-06 04:21 36.49086 -76.13627 38103 ft 480 kts 217°
2026-05-06 04:21 36.43230 -76.17630 38104 ft 480 kts 216°
2026-05-06 04:22 36.37387 -76.21617 38105 ft 479 kts 216°
2026-05-06 04:23 36.28647 -76.27567 38107 ft 479 kts 216°
2026-05-06 04:23 36.22828 -76.31521 38107 ft 479 kts 216°
2026-05-06 04:24 36.16983 -76.35485 38102 ft 478 kts 216°
2026-05-06 04:24 36.11181 -76.39413 38118 ft 478 kts 216°
2026-05-06 04:25 36.05352 -76.43353 38125 ft 478 kts 216°
2026-05-06 04:25 35.99521 -76.47287 38125 ft 478 kts 216°
2026-05-06 04:26 35.93697 -76.51208 38124 ft 477 kts 216°
2026-05-06 04:26 35.87892 -76.55096 38120 ft 478 kts 215°
2026-05-06 04:27 35.81959 -76.58749 38117 ft 479 kts 213°
2026-05-06 04:27 35.75973 -76.62391 38116 ft 479 kts 213°
2026-05-06 04:28 35.70009 -76.66051 38114 ft 478 kts 213°
2026-05-06 04:28 35.64062 -76.69707 38116 ft 478 kts 213°
2026-05-06 04:29 35.58115 -76.73358 38117 ft 477 kts 213°
2026-05-06 04:29 35.52223 -76.76968 38117 ft 477 kts 213°
2026-05-06 04:30 35.46278 -76.80605 38123 ft 476 kts 213°
2026-05-06 04:30 35.40350 -76.84225 38126 ft 476 kts 213°
2026-05-06 04:31 35.34459 -76.87817 38124 ft 475 kts 213°
2026-05-06 04:31 35.28543 -76.91418 38127 ft 475 kts 213°
2026-05-06 04:32 35.22624 -76.95019 38130 ft 474 kts 213°
2026-05-06 04:32 35.16770 -76.98693 38132 ft 474 kts 214°
2026-05-06 04:33 35.10948 -77.02360 38132 ft 473 kts 214°
2026-05-06 04:33 35.05088 -77.06030 38134 ft 473 kts 214°
2026-05-06 04:34 34.99239 -77.09681 38131 ft 473 kts 213°
2026-05-06 04:34 34.93378 -77.13334 38129 ft 473 kts 213°
2026-05-06 04:35 34.87512 -77.16985 38129 ft 472 kts 213°
2026-05-06 04:35 34.81669 -77.20615 38130 ft 472 kts 213°
2026-05-06 04:36 34.75850 -77.24224 38125 ft 472 kts 213°
2026-05-06 04:36 34.70019 -77.27836 38127 ft 472 kts 213°
2026-05-06 04:37 34.64167 -77.31457 38124 ft 471 kts 213°
2026-05-06 04:37 34.58327 -77.35064 38122 ft 471 kts 213°
2026-05-06 04:38 34.52462 -77.38675 38126 ft 471 kts 212°
2026-05-06 04:38 34.46294 -77.41414 38125 ft 482 kts 200°
2026-05-06 04:39 34.39655 -77.42819 38119 ft 486 kts 195°
2026-05-06 04:39 34.32974 -77.44109 38121 ft 486 kts 195°
2026-05-06 04:40 34.26326 -77.45408 38122 ft 485 kts 195°
2026-05-06 04:40 34.19700 -77.46701 38117 ft 485 kts 195°
2026-05-06 04:41 34.13049 -77.47994 38120 ft 485 kts 195°
2026-05-06 04:41 34.06390 -77.49289 38121 ft 484 kts 195°
2026-05-06 04:42 33.99736 -77.50580 38122 ft 484 kts 195°
2026-05-06 04:42 33.93099 -77.51867 38120 ft 483 kts 195°
2026-05-06 04:43 33.86460 -77.53152 38121 ft 483 kts 195°
2026-05-06 04:43 33.79973 -77.54405 38120 ft 483 kts 195°
2026-05-06 04:44 33.73351 -77.55682 38123 ft 482 kts 195°
2026-05-06 04:44 33.66727 -77.56958 38121 ft 482 kts 195°
2026-05-06 04:45 33.60117 -77.58230 38119 ft 481 kts 195°
2026-05-06 04:45 33.53695 -77.60134 38112 ft 474 kts 202°
2026-05-06 04:46 33.47411 -77.62355 38036 ft 475 kts 202°
2026-05-06 04:46 33.41052 -77.64582 37977 ft 475 kts 202°
2026-05-06 04:47 33.34702 -77.66798 37906 ft 475 kts 202°
2026-05-06 04:47 33.28357 -77.69011 37846 ft 475 kts 202°
2026-05-06 04:48 33.22016 -77.71218 37778 ft 475 kts 202°
2026-05-06 04:48 33.15720 -77.73406 38050 ft 467 kts 202°
2026-05-06 04:48 33.12631 -77.74474 38458 ft 461 kts 202°
2026-05-06 04:49 33.09546 -77.75544 38527 ft 463 kts 202°
2026-05-06 04:49 33.03349 -77.77697 38790 ft 461 kts 202°
2026-05-06 04:49 33.00300 -77.78752 38985 ft 459 kts 202°
2026-05-06 04:50 32.97249 -77.79807 39180 ft 457 kts 202°
2026-05-06 04:50 32.94145 -77.80880 39379 ft 456 kts 202°
2026-05-06 04:50 32.91154 -77.81914 39451 ft 458 kts 202°
2026-05-06 04:51 32.85003 -77.84038 39614 ft 459 kts 202°
2026-05-06 04:51 32.78882 -77.86146 39615 ft 454 kts 202°
2026-05-06 04:51 32.75858 -77.87183 38964 ft 450 kts 202°
2026-05-06 04:52 32.72973 -77.88177 37989 ft 450 kts 202°
2026-05-06 04:52 32.69925 -77.89226 37169 ft 445 kts 202°
2026-05-06 04:52 32.67023 -77.90222 36546 ft 436 kts 202°
2026-05-06 04:52 32.64161 -77.91181 35489 ft 424 kts 201°
2026-05-06 04:53 32.61307 -77.92108 34734 ft 425 kts 200°
2026-05-06 04:53 32.58470 -77.93019 34254 ft 419 kts 200°
2026-05-06 04:53 32.55679 -77.93917 33686 ft 413 kts 200°
2026-05-06 04:53 32.52911 -77.94811 33042 ft 409 kts 200°
2026-05-06 04:54 32.50209 -77.95685 32427 ft 405 kts 200°
2026-05-06 04:54 32.47504 -77.96561 31813 ft 402 kts 200°
2026-05-06 04:54 32.44818 -77.97430 31240 ft 398 kts 200°
2026-05-06 04:54 32.42163 -77.98289 30666 ft 394 kts 200°
2026-05-06 04:55 32.39532 -77.99140 30076 ft 391 kts 200°
2026-05-06 04:55 32.36926 -77.99982 29420 ft 387 kts 200°
2026-05-06 04:55 32.34342 -78.00816 28823 ft 383 kts 200°
2026-05-06 04:55 32.31775 -78.01645 28185 ft 380 kts 200°
2026-05-06 04:56 32.29246 -78.02462 27580 ft 376 kts 200°
2026-05-06 04:56 32.26720 -78.03277 26981 ft 373 kts 200°
2026-05-06 04:56 32.24257 -78.04071 26423 ft 370 kts 200°
2026-05-06 04:56 32.21784 -78.04867 25854 ft 367 kts 199°
2026-05-06 04:57 32.19344 -78.05653 25284 ft 365 kts 199°
2026-05-06 04:57 32.16892 -78.06443 24734 ft 362 kts 199°
2026-05-06 04:57 32.14484 -78.07217 24214 ft 359 kts 199°
2026-05-06 04:57 32.12086 -78.07988 23661 ft 357 kts 199°
2026-05-06 04:58 32.09752 -78.08737 23075 ft 354 kts 199°
2026-05-06 04:58 32.07333 -78.09514 22482 ft 351 kts 199°
2026-05-06 04:58 32.05018 -78.10255 22224 ft 347 kts 199°
2026-05-06 04:58 32.02687 -78.11004 22143 ft 349 kts 199°
2026-05-06 04:59 32.00335 -78.11758 22139 ft 350 kts 199°
2026-05-06 04:59 31.97982 -78.12512 22140 ft 350 kts 199°
2026-05-06 04:59 31.95626 -78.13265 22139 ft 350 kts 199°
2026-05-06 04:59 31.93287 -78.14013 22142 ft 350 kts 199°
2026-05-06 05:00 31.90924 -78.14768 22141 ft 350 kts 199°
2026-05-06 05:00 31.88580 -78.15517 22140 ft 350 kts 199°
2026-05-06 05:00 31.86232 -78.16266 22138 ft 345 kts 199°
2026-05-06 05:00 31.83987 -78.16978 22140 ft 330 kts 199°
2026-05-06 05:01 31.81835 -78.17659 22135 ft 314 kts 199°
2026-05-06 05:01 31.79642 -78.18364 22144 ft 344 kts 199°
2026-05-06 05:01 31.77208 -78.19152 22162 ft 377 kts 199°
2026-05-06 05:01 31.74576 -78.19998 22144 ft 407 kts 198°
2026-05-06 05:02 31.71759 -78.20894 22139 ft 434 kts 198°
2026-05-06 05:02 31.68766 -78.21842 22143 ft 457 kts 198°
2026-05-06 05:02 31.65626 -78.22836 22137 ft 477 kts 198°
2026-05-06 05:02 31.62400 -78.23856 22135 ft 491 kts 198°
2026-05-06 05:03 31.59140 -78.24883 22515 ft 471 kts 198°
2026-05-06 05:03 31.56006 -78.25860 22003 ft 474 kts 198°
2026-05-06 05:03 31.52842 -78.26848 21953 ft 462 kts 198°
2026-05-06 05:03 31.49832 -78.27795 22086 ft 427 kts 198°
2026-05-06 05:04 31.47055 -78.28676 22023 ft 401 kts 198°
2026-05-06 05:04 31.44443 -78.29528 21827 ft 382 kts 199°
2026-05-06 05:04 31.41949 -78.30375 21646 ft 364 kts 199°
2026-05-06 05:04 31.39566 -78.31188 21458 ft 348 kts 199°
2026-05-06 05:05 31.37260 -78.31975 20980 ft 343 kts 199°
2026-05-06 05:05 31.35013 -78.32739 20434 ft 342 kts 199°
2026-05-06 05:05 31.32750 -78.33503 20125 ft 337 kts 199°
2026-05-06 05:05 31.30478 -78.34268 20038 ft 342 kts 199°
2026-05-06 05:06 31.28192 -78.35033 20028 ft 341 kts 199°
2026-05-06 05:06 31.25911 -78.35795 20028 ft 341 kts 199°
2026-05-06 05:06 31.23631 -78.36556 20026 ft 341 kts 199°
2026-05-06 05:06 31.21347 -78.37318 20026 ft 341 kts 199°
2026-05-06 05:07 31.19061 -78.38080 20023 ft 341 kts 199°
2026-05-06 05:07 31.16805 -78.38832 20026 ft 341 kts 199°
2026-05-06 05:07 31.14485 -78.39605 20023 ft 342 kts 199°
2026-05-06 05:07 31.12239 -78.40354 20022 ft 342 kts 199°
2026-05-06 05:08 31.09944 -78.41118 20023 ft 342 kts 199°
2026-05-06 05:08 31.07664 -78.41876 20022 ft 342 kts 199°
2026-05-06 05:08 31.05379 -78.42636 20025 ft 342 kts 199°
2026-05-06 05:08 31.03088 -78.43398 20026 ft 342 kts 199°
2026-05-06 05:09 31.00801 -78.44157 20026 ft 341 kts 199°
2026-05-06 05:09 30.98548 -78.44905 20027 ft 341 kts 199°
2026-05-06 05:09 30.96265 -78.45661 20025 ft 342 kts 199°
2026-05-06 05:09 30.93971 -78.46422 20023 ft 342 kts 199°
2026-05-06 05:10 30.91693 -78.47176 20025 ft 342 kts 199°
2026-05-06 05:10 30.89397 -78.47937 20025 ft 342 kts 199°
2026-05-06 05:10 30.87110 -78.48695 20024 ft 342 kts 199°
2026-05-06 05:10 30.84819 -78.49454 20031 ft 342 kts 199°
2026-05-06 05:11 30.82539 -78.50208 20031 ft 342 kts 199°
2026-05-06 05:11 30.80279 -78.50955 20030 ft 342 kts 199°
2026-05-06 05:11 30.77996 -78.51709 20021 ft 342 kts 199°
2026-05-06 05:11 30.75697 -78.52468 20025 ft 342 kts 199°
2026-05-06 05:12 30.73410 -78.53223 20025 ft 342 kts 199°
2026-05-06 05:12 30.71121 -78.53979 20031 ft 342 kts 199°
2026-05-06 05:12 30.68845 -78.54730 20019 ft 342 kts 199°
2026-05-06 05:12 30.66555 -78.55485 20021 ft 342 kts 199°
2026-05-06 05:13 30.64265 -78.56240 20027 ft 342 kts 199°
2026-05-06 05:13 30.61968 -78.56997 20024 ft 342 kts 199°
2026-05-06 05:13 30.59704 -78.57743 20025 ft 343 kts 199°
2026-05-06 05:13 30.57421 -78.58494 20025 ft 342 kts 199°
2026-05-06 05:14 30.55127 -78.59248 20023 ft 342 kts 199°
2026-05-06 05:14 30.52842 -78.59999 20023 ft 342 kts 199°
2026-05-06 05:14 30.50540 -78.60755 20023 ft 343 kts 200°
2026-05-06 05:14 30.48244 -78.61510 20025 ft 342 kts 200°
2026-05-06 05:15 30.45960 -78.62259 19839 ft 343 kts 200°
2026-05-06 05:15 30.43618 -78.63031 20011 ft 360 kts 200°
2026-05-06 05:15 30.41186 -78.63829 20023 ft 359 kts 200°
2026-05-06 05:15 30.38778 -78.64616 20023 ft 358 kts 200°
2026-05-06 05:16 30.36378 -78.65400 20024 ft 359 kts 200°
2026-05-06 05:16 30.34012 -78.66174 20023 ft 359 kts 200°
2026-05-06 05:16 30.31609 -78.66961 20024 ft 359 kts 200°
2026-05-06 05:16 30.29212 -78.67745 20024 ft 359 kts 200°
2026-05-06 05:17 30.26805 -78.68532 20023 ft 359 kts 200°
2026-05-06 05:17 30.24399 -78.69319 20173 ft 357 kts 200°
2026-05-06 05:17 30.22051 -78.70084 20026 ft 343 kts 200°
2026-05-06 05:17 30.19768 -78.70827 20023 ft 341 kts 200°
2026-05-06 05:18 30.17504 -78.71570 20021 ft 344 kts 200°
2026-05-06 05:18 30.15206 -78.72322 20023 ft 344 kts 200°
2026-05-06 05:18 30.12902 -78.73073 20025 ft 344 kts 200°
2026-05-06 05:18 30.10600 -78.73824 20024 ft 344 kts 200°
2026-05-06 05:19 30.08288 -78.74578 20023 ft 344 kts 200°
2026-05-06 05:19 30.05997 -78.75324 20021 ft 344 kts 200°
2026-05-06 05:19 30.03689 -78.76076 20021 ft 345 kts 200°
2026-05-06 05:19 30.01382 -78.76826 20023 ft 344 kts 200°
2026-05-06 05:20 29.99066 -78.77579 20027 ft 345 kts 200°
2026-05-06 05:20 29.96792 -78.78318 20020 ft 344 kts 200°
2026-05-06 05:20 29.94478 -78.79069 20024 ft 345 kts 200°
2026-05-06 05:20 29.92173 -78.79817 20026 ft 345 kts 200°
2026-05-06 05:21 29.89861 -78.80568 20021 ft 345 kts 200°
2026-05-06 05:21 29.87549 -78.81318 20026 ft 345 kts 200°
2026-05-06 05:21 29.85242 -78.82065 20023 ft 346 kts 200°
2026-05-06 05:21 29.82931 -78.82814 20015 ft 346 kts 200°
2026-05-06 05:22 29.80617 -78.83564 20027 ft 345 kts 200°
2026-05-06 05:22 29.78295 -78.84315 20028 ft 346 kts 200°
2026-05-06 05:22 29.75965 -78.84899 20029 ft 350 kts 192°
2026-05-06 05:22 29.73541 -78.85186 20022 ft 351 kts 189°
2026-05-06 05:23 29.71112 -78.85408 20029 ft 351 kts 189°
2026-05-06 05:23 29.68671 -78.85654 20027 ft 351 kts 190°
2026-05-06 05:23 29.63820 -78.86247 20021 ft 351 kts 191°
2026-05-06 05:24 29.61396 -78.86569 20020 ft 351 kts 191°
2026-05-06 05:24 29.59000 -78.86892 20019 ft 351 kts 191°
2026-05-06 05:24 29.56575 -78.87220 20021 ft 351 kts 191°
2026-05-06 05:24 29.54158 -78.87547 20023 ft 351 kts 191°
2026-05-06 05:25 29.51718 -78.87876 20018 ft 351 kts 191°
2026-05-06 05:25 29.49302 -78.88201 20019 ft 351 kts 191°
2026-05-06 05:25 29.46864 -78.88529 20021 ft 352 kts 191°
2026-05-06 05:25 29.44439 -78.88855 20020 ft 352 kts 191°
2026-05-06 05:26 29.42005 -78.89182 20023 ft 351 kts 191°
2026-05-06 05:26 29.39605 -78.89504 20018 ft 352 kts 191°
2026-05-06 05:26 29.37172 -78.89830 20020 ft 352 kts 191°
2026-05-06 05:26 29.34750 -78.90155 20018 ft 352 kts 191°
2026-05-06 05:27 29.32313 -78.90481 20017 ft 352 kts 191°
2026-05-06 05:27 29.29880 -78.90807 20018 ft 352 kts 191°
2026-05-06 05:27 29.27440 -78.91134 20017 ft 353 kts 191°
2026-05-06 05:27 29.25002 -78.91461 20015 ft 353 kts 191°
2026-05-06 05:28 29.22560 -78.91787 20016 ft 353 kts 191°
2026-05-06 05:28 29.20133 -78.92112 20015 ft 353 kts 191°
2026-05-06 05:28 29.17680 -78.92440 20022 ft 353 kts 191°
2026-05-06 05:28 29.15271 -78.92762 20021 ft 353 kts 191°
2026-05-06 05:29 29.12833 -78.93088 20019 ft 353 kts 191°
2026-05-06 05:29 29.10386 -78.93414 20016 ft 354 kts 191°
2026-05-06 05:29 29.07940 -78.93741 20014 ft 354 kts 191°
2026-05-06 05:29 29.05499 -78.94066 20018 ft 354 kts 191°
2026-05-06 05:30 29.03047 -78.94393 20018 ft 354 kts 191°
2026-05-06 05:30 29.00606 -78.94718 20016 ft 354 kts 191°
2026-05-06 05:30 28.98184 -78.95040 20015 ft 355 kts 191°
2026-05-06 05:30 28.96530 -78.95261 20013 ft 355 kts 191°
2026-05-06 05:31 28.93283 -78.95693 20013 ft 355 kts 191°
2026-05-06 05:31 28.90827 -78.96019 20013 ft 355 kts 191°
2026-05-06 05:31 28.88377 -78.96345 20013 ft 355 kts 191°
2026-05-06 05:31 28.85921 -78.96671 20016 ft 355 kts 191°
2026-05-06 05:32 28.83465 -78.96997 20014 ft 355 kts 191°
2026-05-06 05:32 28.81013 -78.97322 20013 ft 355 kts 191°
2026-05-06 05:32 28.79388 -78.97538 20014 ft 356 kts 191°
2026-05-06 05:32 28.76927 -78.97865 20016 ft 356 kts 191°
2026-05-06 05:33 28.73666 -78.98298 20014 ft 356 kts 191°
2026-05-06 05:33 28.71198 -78.98625 20012 ft 356 kts 191°
2026-05-06 05:33 28.68741 -78.98950 20012 ft 357 kts 191°
2026-05-06 05:33 28.66274 -78.99277 20011 ft 357 kts 191°
2026-05-06 05:34 28.64642 -78.99493 20010 ft 357 kts 191°
2026-05-06 05:34 28.62174 -78.99819 20010 ft 357 kts 191°
2026-05-06 05:34 28.58905 -79.00251 20013 ft 357 kts 191°
2026-05-06 05:34 28.56437 -79.00577 20012 ft 357 kts 191°
2026-05-06 05:35 28.53963 -79.00903 20014 ft 358 kts 191°
2026-05-06 05:35 28.51503 -79.01227 20012 ft 357 kts 191°
2026-05-06 05:35 28.49028 -79.01554 20009 ft 358 kts 191°
2026-05-06 05:35 28.47382 -79.01771 20009 ft 358 kts 191°
2026-05-06 05:36 28.44873 -79.02102 20011 ft 358 kts 191°
2026-05-06 05:36 28.42436 -79.02423 20008 ft 358 kts 191°
2026-05-06 05:36 28.39959 -79.02749 20009 ft 359 kts 191°
2026-05-06 05:36 28.37472 -79.03077 20008 ft 359 kts 191°
2026-05-06 05:37 28.34990 -79.03403 20007 ft 359 kts 191°
2026-05-06 05:37 28.32510 -79.03729 20007 ft 359 kts 191°
2026-05-06 05:37 28.30059 -79.04052 20008 ft 359 kts 191°
2026-05-06 05:37 28.27544 -79.04383 20007 ft 360 kts 191°
2026-05-06 05:38 28.25094 -79.04705 20008 ft 359 kts 191°
2026-05-06 05:38 28.22609 -79.05031 20008 ft 359 kts 191°
2026-05-06 05:38 28.20136 -79.05356 20003 ft 360 kts 191°
2026-05-06 05:38 28.17615 -79.05687 19997 ft 360 kts 191°
2026-05-06 05:39 28.15127 -79.06013 19825 ft 357 kts 191°
2026-05-06 05:39 28.12666 -79.06335 19433 ft 355 kts 191°
2026-05-06 05:39 28.10256 -79.06652 18945 ft 352 kts 191°
2026-05-06 05:39 28.07913 -79.07326 18457 ft 344 kts 204°
2026-05-06 05:40 28.05722 -79.08373 17916 ft 340 kts 208°
2026-05-06 05:40 28.03578 -79.09475 17404 ft 336 kts 207°
2026-05-06 05:40 28.01448 -79.10532 16883 ft 334 kts 206°
2026-05-06 05:40 27.99310 -79.11540 16377 ft 331 kts 205°
2026-05-06 05:41 27.97185 -79.12508 15885 ft 328 kts 205°
2026-05-06 05:41 27.95074 -79.13451 15404 ft 325 kts 204°
2026-05-06 05:41 27.92983 -79.14379 14920 ft 322 kts 204°
2026-05-06 05:41 27.90920 -79.15292 14448 ft 320 kts 204°
2026-05-06 05:42 27.88842 -79.16212 13991 ft 317 kts 204°
2026-05-06 05:42 27.86827 -79.17105 13507 ft 313 kts 204°
2026-05-06 05:42 27.84795 -79.18005 12968 ft 312 kts 204°
2026-05-06 05:42 27.82790 -79.18892 12467 ft 309 kts 204°
2026-05-06 05:43 27.80805 -79.19770 12124 ft 305 kts 204°
2026-05-06 05:43 27.78811 -79.20653 12022 ft 309 kts 204°
2026-05-06 05:43 27.76812 -79.21538 12001 ft 308 kts 204°
2026-05-06 05:43 27.74819 -79.22419 12006 ft 308 kts 204°
2026-05-06 05:44 27.72821 -79.23302 12006 ft 308 kts 204°
2026-05-06 05:44 27.70853 -79.24171 12005 ft 308 kts 204°
2026-05-06 05:44 27.68861 -79.25049 12004 ft 308 kts 204°
2026-05-06 05:44 27.66865 -79.25930 11999 ft 308 kts 204°
2026-05-06 05:45 27.64870 -79.26809 11979 ft 309 kts 204°
2026-05-06 05:45 27.62831 -79.27709 11998 ft 315 kts 204°
2026-05-06 05:45 27.60803 -79.28603 12002 ft 313 kts 204°
2026-05-06 05:45 27.58767 -79.29501 12000 ft 313 kts 204°
2026-05-06 05:46 27.56743 -79.30391 12003 ft 314 kts 204°
2026-05-06 05:46 27.54711 -79.31286 11999 ft 314 kts 204°
2026-05-06 05:46 27.52703 -79.32170 12001 ft 313 kts 204°
2026-05-06 05:46 27.50662 -79.33068 12000 ft 314 kts 204°
2026-05-06 05:47 27.48634 -79.33959 12000 ft 314 kts 204°
2026-05-06 05:47 27.46603 -79.34852 12000 ft 314 kts 204°
2026-05-06 05:47 27.44572 -79.35744 12005 ft 314 kts 204°
2026-05-06 05:47 27.42530 -79.36641 12000 ft 314 kts 204°
2026-05-06 05:48 27.40523 -79.37522 12002 ft 314 kts 204°
2026-05-06 05:48 27.38469 -79.38424 12003 ft 314 kts 204°
2026-05-06 05:48 27.36448 -79.39312 11999 ft 315 kts 204°
2026-05-06 05:48 27.34411 -79.40205 12000 ft 314 kts 204°
2026-05-06 05:49 27.32375 -79.41098 11999 ft 315 kts 204°
2026-05-06 05:49 27.30334 -79.41979 11996 ft 314 kts 201°
2026-05-06 05:49 27.28254 -79.42737 11999 ft 315 kts 200°
2026-05-06 05:49 27.26162 -79.43498 11999 ft 315 kts 200°
2026-05-06 05:50 27.24077 -79.44259 12000 ft 315 kts 200°
2026-05-06 05:50 27.22015 -79.45013 11997 ft 315 kts 200°
2026-05-06 05:50 27.19931 -79.45775 11996 ft 315 kts 200°
2026-05-06 05:50 27.17846 -79.46538 11997 ft 316 kts 200°
2026-05-06 05:51 27.15752 -79.47303 11996 ft 316 kts 200°
2026-05-06 05:51 27.13664 -79.48067 11995 ft 315 kts 200°
2026-05-06 05:51 27.11577 -79.48829 11998 ft 316 kts 200°
2026-05-06 05:51 27.09497 -79.49588 11997 ft 316 kts 200°
2026-05-06 05:52 27.07402 -79.50352 11995 ft 316 kts 200°
2026-05-06 05:52 27.05316 -79.51113 11998 ft 316 kts 200°
2026-05-06 05:52 27.03217 -79.51879 11993 ft 316 kts 200°
2026-05-06 05:52 27.01153 -79.52631 11994 ft 317 kts 200°
2026-05-06 05:53 26.99061 -79.53393 11991 ft 316 kts 200°
2026-05-06 05:53 26.96970 -79.54155 11993 ft 316 kts 200°
2026-05-06 05:53 26.94875 -79.54918 11993 ft 316 kts 200°
2026-05-06 05:53 26.92776 -79.55682 11992 ft 316 kts 200°
2026-05-06 05:54 26.90690 -79.56441 11993 ft 316 kts 200°
2026-05-06 05:54 26.88597 -79.57202 11994 ft 316 kts 200°
2026-05-06 05:54 26.86497 -79.57963 11990 ft 316 kts 200°
2026-05-06 05:54 26.84429 -79.58709 11992 ft 316 kts 200°
2026-05-06 05:55 26.82310 -79.59472 11990 ft 316 kts 200°
2026-05-06 05:55 26.80245 -79.60216 11990 ft 316 kts 200°
2026-05-06 05:55 26.78156 -79.60969 11994 ft 317 kts 200°
2026-05-06 05:55 26.76052 -79.61727 11995 ft 317 kts 200°
2026-05-06 05:56 26.73954 -79.62482 11993 ft 317 kts 200°
2026-05-06 05:56 26.71862 -79.63236 11992 ft 317 kts 200°
2026-05-06 05:56 26.69761 -79.63992 11992 ft 317 kts 200°
2026-05-06 05:56 26.67682 -79.64740 11989 ft 317 kts 200°
2026-05-06 05:57 26.65554 -79.65506 11993 ft 317 kts 200°
2026-05-06 05:57 26.63482 -79.66251 11993 ft 317 kts 200°
2026-05-06 05:57 26.61394 -79.67000 11993 ft 317 kts 200°
2026-05-06 05:57 26.59289 -79.67740 11991 ft 317 kts 200°
2026-05-06 05:58 26.57174 -79.68477 11994 ft 317 kts 199°
2026-05-06 05:58 26.55070 -79.69210 11994 ft 317 kts 200°
2026-05-06 05:58 26.52968 -79.69943 11990 ft 317 kts 200°
2026-05-06 05:58 26.50886 -79.70671 11992 ft 317 kts 200°
2026-05-06 05:59 26.48759 -79.71415 11986 ft 317 kts 200°
2026-05-06 05:59 26.46724 -79.72235 11805 ft 312 kts 208°
2026-05-06 05:59 26.44921 -79.73547 11367 ft 308 kts 223°
2026-05-06 05:59 26.43500 -79.75242 11225 ft 289 kts 231°
2026-05-06 06:00 26.42209 -79.76853 11058 ft 272 kts 230°
2026-05-06 06:00 26.40919 -79.78420 11058 ft 275 kts 230°
2026-05-06 06:00 26.39622 -79.79985 11170 ft 276 kts 230°
2026-05-06 06:00 26.38333 -79.81587 11269 ft 275 kts 234°
2026-05-06 06:01 26.37239 -79.83319 11356 ft 274 kts 238°
2026-05-06 06:01 26.36157 -79.85066 11299 ft 271 kts 238°
2026-05-06 06:01 26.35124 -79.86714 11184 ft 244 kts 238°
2026-05-06 06:01 26.34207 -79.88167 11018 ft 220 kts 238°
2026-05-06 06:02 26.33352 -79.89528 10994 ft 214 kts 238°
2026-05-06 06:02 26.32497 -79.90900 11002 ft 212 kts 239°
2026-05-06 06:02 26.31656 -79.92248 10996 ft 214 kts 238°
2026-05-06 06:02 26.30806 -79.93610 10990 ft 214 kts 238°
2026-05-06 06:03 26.29948 -79.94983 10990 ft 220 kts 238°
2026-05-06 06:03 26.29072 -79.96382 10985 ft 219 kts 238°
2026-05-06 06:03 26.28199 -79.97773 10983 ft 220 kts 238°
2026-05-06 06:03 26.27339 -79.99142 10987 ft 220 kts 238°
2026-05-06 06:04 26.26462 -80.00539 10987 ft 219 kts 238°
2026-05-06 06:04 26.25483 -80.01846 10982 ft 224 kts 220°
2026-05-06 06:04 26.24038 -80.02529 10993 ft 230 kts 193°
2026-05-06 06:04 26.22465 -80.02856 10988 ft 231 kts 193°
2026-05-06 06:05 26.20903 -80.03197 10891 ft 227 kts 194°
2026-05-06 06:05 26.19362 -80.03545 10555 ft 225 kts 194°
2026-05-06 06:05 26.17842 -80.03894 10103 ft 225 kts 194°
2026-05-06 06:05 26.16310 -80.04248 9603 ft 224 kts 194°
2026-05-06 06:06 26.14794 -80.04597 9128 ft 221 kts 194°
2026-05-06 06:06 26.13289 -80.04943 8649 ft 219 kts 194°
2026-05-06 06:06 26.11815 -80.05282 8199 ft 216 kts 194°
2026-05-06 06:06 26.10347 -80.05618 7767 ft 213 kts 194°
2026-05-06 06:07 26.08906 -80.05947 7321 ft 211 kts 193°
2026-05-06 06:07 26.07480 -80.06273 6899 ft 208 kts 193°
2026-05-06 06:07 26.06071 -80.06600 6483 ft 205 kts 194°
2026-05-06 06:07 26.04685 -80.06957 6028 ft 204 kts 195°
2026-05-06 06:08 26.03320 -80.07323 5580 ft 204 kts 195°
2026-05-06 06:08 26.01952 -80.07690 5156 ft 202 kts 194°
2026-05-06 06:08 26.00589 -80.08051 5015 ft 203 kts 194°
2026-05-06 06:08 25.99215 -80.08410 4980 ft 204 kts 194°
2026-05-06 06:09 25.97841 -80.08767 4981 ft 204 kts 194°
2026-05-06 06:09 25.96455 -80.09127 4977 ft 204 kts 194°
2026-05-06 06:09 25.95077 -80.09485 4978 ft 204 kts 194°
2026-05-06 06:09 25.93692 -80.09844 4977 ft 204 kts 194°
2026-05-06 06:10 25.92350 -80.10327 4986 ft 203 kts 210°
2026-05-06 06:10 25.91317 -80.11352 4993 ft 202 kts 231°
2026-05-06 06:10 25.90402 -80.12537 4987 ft 202 kts 229°
2026-05-06 06:10 25.89463 -80.13700 4986 ft 202 kts 229°
2026-05-06 06:11 25.88514 -80.14865 4986 ft 202 kts 231°
2026-05-06 06:11 25.87918 -80.16220 4988 ft 202 kts 261°
2026-05-06 06:11 25.87889 -80.17795 4984 ft 202 kts 271°
2026-05-06 06:11 25.87878 -80.19350 4989 ft 201 kts 269°
2026-05-06 06:12 25.87842 -80.20768 4988 ft 202 kts 268°
2026-05-06 06:12 25.87784 -80.22322 4989 ft 201 kts 268°
2026-05-06 06:12 25.87726 -80.23857 4990 ft 202 kts 268°
2026-05-06 06:12 25.87669 -80.25412 4989 ft 202 kts 268°
2026-05-06 06:13 25.87617 -80.26939 4986 ft 201 kts 268°
2026-05-06 06:13 25.87587 -80.28498 4983 ft 201 kts 275°
2026-05-06 06:13 25.87953 -80.29940 4984 ft 201 kts 297°
2026-05-06 06:13 25.88644 -80.31265 4985 ft 201 kts 300°
2026-05-06 06:14 25.89322 -80.32625 4989 ft 201 kts 298°
2026-05-06 06:14 25.89987 -80.33996 4985 ft 201 kts 298°
2026-05-06 06:14 25.90638 -80.35345 4987 ft 201 kts 298°
2026-05-06 06:14 25.91298 -80.36710 4987 ft 201 kts 298°
2026-05-06 06:15 25.91957 -80.38071 4986 ft 201 kts 298°
2026-05-06 06:15 25.92616 -80.39428 4921 ft 198 kts 298°
2026-05-06 06:15 25.93268 -80.40771 4576 ft 197 kts 298°
2026-05-06 06:15 25.93744 -80.42191 4153 ft 198 kts 278°
2026-05-06 06:16 25.93741 -80.43727 4019 ft 201 kts 267°
2026-05-06 06:16 25.93693 -80.45278 3984 ft 201 kts 268°
2026-05-06 06:16 25.93668 -80.46825 3983 ft 202 kts 269°
2026-05-06 06:16 25.93640 -80.48394 3986 ft 202 kts 268°
2026-05-06 06:17 25.93559 -80.49933 3984 ft 202 kts 262°
2026-05-06 06:17 25.93175 -80.51429 3982 ft 202 kts 252°
2026-05-06 06:17 25.92764 -80.52915 3984 ft 202 kts 252°
2026-05-06 06:17 25.92355 -80.54404 3983 ft 202 kts 252°
2026-05-06 06:18 25.91805 -80.55831 3979 ft 200 kts 230°
2026-05-06 06:18 25.90671 -80.56671 3985 ft 199 kts 193°
2026-05-06 06:18 25.89318 -80.56569 3982 ft 197 kts 155°
2026-05-06 06:18 25.88318 -80.55573 3988 ft 197 kts 118°
2026-05-06 06:19 25.88077 -80.54124 3988 ft 197 kts 84°
2026-05-06 06:19 25.88373 -80.52636 3984 ft 197 kts 73°
2026-05-06 06:19 25.88758 -80.51178 3806 ft 193 kts 77°
2026-05-06 06:19 25.88906 -80.49719 3425 ft 192 kts 91°
2026-05-06 06:20 25.88715 -80.48263 3092 ft 189 kts 104°
2026-05-06 06:20 25.88301 -80.46868 3003 ft 193 kts 112°
2026-05-06 06:20 25.87735 -80.45527 2906 ft 192 kts 116°
2026-05-06 06:20 25.87105 -80.44235 2857 ft 183 kts 119°
2026-05-06 06:21 25.86467 -80.43017 2810 ft 183 kts 120°
2026-05-06 06:21 25.85834 -80.41800 2800 ft 183 kts 119°
2026-05-06 06:21 25.85193 -80.40540 2801 ft 193 kts 118°
2026-05-06 06:21 25.84552 -80.39250 2540 ft 189 kts 118°
2026-05-06 06:22 25.83928 -80.38033 2101 ft 178 kts 120°
2026-05-06 06:22 25.83308 -80.36889 1666 ft 173 kts 118°
2026-05-06 06:22 25.82740 -80.35677 1344 ft 178 kts 117°
2026-05-06 06:22 25.82134 -80.34471 1034 ft 177 kts 118°
2026-05-06 06:23 25.81541 -80.33346 762 ft 160 kts 119°
2026-05-06 06:23 25.81011 -80.32326 493 ft 147 kts 118°
2026-05-06 06:23 25.80532 -80.31384 285 ft 138 kts 119°
2026-05-06 06:23 25.80069 -80.30483 111 ft 128 kts 118°
2026-05-06 06:24 25.79656 -80.29675 17 ft 115 kts 117°
2026-05-06 06:24 25.79410 -80.29210 15 ft 27 kts 120°
2026-05-06 06:24 25.79396 -80.29184 15 ft 0 kts 120°
2026-05-06 06:24 25.79393 -80.29179 15 ft 3 kts 120°
2026-05-06 06:25 25.79378 -80.29149 15 ft 3 kts 120°
2026-05-06 06:25 25.79364 -80.29123 15 ft 6 kts 120°
2026-05-06 06:25 25.79312 -80.29019 15 ft 8 kts 118°
2026-05-06 06:26 25.79299 -80.28974 15 ft 7 kts 98°
2026-05-06 06:26 25.79310 -80.28915 15 ft 8 kts 64°
2026-05-06 06:26 25.79341 -80.28890 15 ft 6 kts 16°
2026-05-06 06:26 25.79390 -80.28888 16 ft 8 kts 358°
2026-05-06 06:27 25.79453 -80.28891 17 ft 10 kts 358°
2026-05-06 06:27 25.79509 -80.28894 17 ft 9 kts 358°
2026-05-06 06:27 25.79559 -80.28863 19 ft 8 kts 65°
2026-05-06 06:27 25.79565 -80.28801 19 ft 8 kts 93°
2026-05-06 06:28 25.79569 -80.28741 20 ft 8 kts 79°
2026-05-06 06:28 25.79585 -80.28673 20 ft 9 kts 75°
2026-05-06 06:28 25.79589 -80.28603 21 ft 9 kts 98°
2026-05-06 06:28 25.79584 -80.28539 19 ft 9 kts 94°
2026-05-06 06:29 25.79615 -80.28500 19 ft 7 kts 58°
2026-05-06 06:29 25.79625 -80.28437 19 ft 10 kts 85°
2026-05-06 06:29 25.79627 -80.28371 19 ft 7 kts 89°
2026-05-06 06:29 25.79629 -80.28306 19 ft 10 kts 88°
2026-05-06 06:30 25.79614 -80.28247 20 ft 7 kts 141°
2026-05-06 06:30 25.79572 -80.28212 20 ft 6 kts 146°
2026-05-06 06:30 25.79568 -80.28210 20 ft 2 kts 146°
2026-05-06 06:30 25.79561 -80.28204 20 ft 0 kts 147°